Starlink 32768

operational
NORAD ID: 62503 Int'l Des: 2025-003 Owner: SPXS Country: US Constellation: starlink
LEOCIRCULAR

Über Starlink 32768

Beschreibung wird geladen...

Live-Position

3D-Globus wird geladen...

Nächste Überflüge

Höhenverlauf

Altitude vs Time

uPlot chart will show altitude changes over time

Zweizeiliger Elementsatz

1 62503U 25003S 25347.50062613 .00055767 00000-0 20176-2 0 9998
2 62503 43.0017 55.4104 0001184 252.5321 107.5401 15.27632687 53379
Epoch: 13. Dez. 2025 • Age: 24 hours

Aktueller Status

Höhe 483.6 km
Geschwindigkeit 7.62 km/s
Subsatellitenpunkt -9.20°S, 29.74°W
Startdatum 6. Jan. 2025
Alter 0.9 years
Typ internet

Technische Details

Klassifizierung Payload
Masse 730.00 kg
Trockenmasse 700.00 kg
Gesamtmasse 730.00 kg
Länge 0.30 m
Durchmesser 4.10 m
Spannweite 29.00 m
Form Box + pan
Hersteller SPXS
Bus-Typ Starlink V2M
Phasenstatus In Orbit
Besitzer/Staat SPXS/US

Große Konstellationen

Loading constellations...